This demonstration page uses our WeatherBlox Daily Observations layout. Learn more.

Left ArrowRight Arrow

Hourly Observations for April 24, 2015

Temp ( °F °C ) Dew Point ( °F °C ) Humidity (%) Winds ( mph kmh ) Pressure ( in mb ) Visibility ( mi km ) Precip ( " mm )
12:53 am 00:53 Cloudy 47 8.3 36 2.2 66 66 N N/A 29.60 1002 10 16 N/A
1:53 am 01:53 Cloudy 42 5.6 35 1.7 76 76 SSW 7 11 29.60 1003 10 16 N/A
2:53 am 02:53 Mostly Cloudy 39 3.9 34 1.1 82 82 WSW 5 7 29.60 1002 10 16 N/A
3:53 am 03:53 Mostly Clear 37 2.8 32 undefined 82 82 SW 7 11 29.61 1003 10 16 N/A
4:53 am 04:53 Mostly Clear 36 2.2 31 -0.6 82 82 SW 8 13 29.61 1003 10 16 N/A
5:53 am 05:53 Clear 35 1.7 30 -1.1 82 82 SSW 8 13 29.62 1003 10 16 N/A
6:53 am 06:53 Sunny 36 2.2 32 undefined 86 86 SW 5 7 29.63 1004 10 16 N/A
7:53 am 07:53 Sunny 42 5.6 34 1.1 73 73 SW 8 13 29.64 1004 10 16 N/A
8:53 am 08:53 Mostly Cloudy 49 9.4 33 0.6 55 55 W 7 11 29.63 1003 10 16 N/A
9:53 am 09:53 Cloudy 53 11.7 34 1.1 48 48 W 7 11 29.63 1004 10 16 N/A
10:53 am 10:53 Cloudy 54 12.2 32 undefined 43 43 W 7 11 29.64 1004 10 16 N/A
11:53 am 11:53 Mostly Cloudy 58 14.4 32 undefined 38 38 W 10 17 29.63 1004 10 16 N/A
12:53 pm 12:53 Mostly Sunny 63 17.2 34 1.1 34 34 SSW 12 19 29.61 1003 10 16 N/A
1:53 pm 13:53 Cloudy 61 16.1 31 -0.6 32 32 SW 12 19 29.61 1003 10 16 N/A
2:53 pm 14:53 Cloudy 60 15.6 31 -0.6 33 33 WNW 10 17 29.62 1003 10 16 N/A
3:53 pm 15:53 Cloudy 59 15 31 -0.6 35 35 WSW 9 15 29.63 1004 10 16 N/A
4:53 pm 16:53 Mostly Cloudy 61 16.1 31 -0.6 32 32 WSW 5 7 29.62 1003 10 16 N/A
5:53 pm 17:53 Mostly Sunny 60 15.6 31 -0.6 33 33 W 6 9 29.61 1003 10 16 N/A
6:53 pm 18:53 Mostly Cloudy 59 15 31 -0.6 35 35 NW 6 9 29.62 1003 10 16 N/A
7:53 pm 19:53 Cloudy 57 13.9 35 1.7 44 44 VRB 3 6 29.64 1004 10 16 N/A
8:53 pm 20:53 Cloudy with Light Rain 55 12.8 36 2.2 49 49 WSW 9 15 29.66 1004 10 16 N/A
9:53 pm 21:53 Cloudy 52 11.1 39 3.9 61 61 S 12 19 29.67 1005 10 16 N/A
10:53 pm 22:53 Cloudy 50 10 40 4.4 68 68 S 10 17 29.67 1005 10 16 N/A
11:53 pm 23:53 Cloudy 50 10 36 2.2 59 59 SW 9 15 29.67 1005 10 16 N/A

Powered by AerisWeather